Lid_Strength_Index
1 1 1 0 0 0 1 2 2 3 3 3 3 3 3 3 4 2 4 4 3 0 2 4 5 4 5 6 6 5 9 11 9 8 7 4 6 4 3 4 4 3 4 3 2
1 1 1 1 1 1 1 1 3 3 3 3 3 3 3 4 3 4 2 0 1 1 4 4 6 6 7 7 6 7 9 9 7 7 7 6 6 5 5 5 5 5 4 3 2
1 1 1 1 1 1 1 1 3 3 3 4 4 3 3 4 4 4 1 0 0 2 4 3 4 6 8 7 7 7 9 8 7 6 7 6 6 4 5 6 5 6 5 4 3
0 0 1 0 0 0 1 1 2 3 3 3 3 3 3 3 9 4 1 1 1 4 4 4 5 7 8 9 7 9 7 7 7 6 7 7 6 6 5 4 3 3 4 4 4
1 1 1 1 2 2 3 3 3 3 3 3 3 3 3 5 6 2 1 3 4 4 5 5 6 7 9 8 7 8 8 7 7 7 7 6 7 7 6 3 3 3 4 4 4
1 1 1 1 2 2 2 3 4 4 5 4 4 4 3 8 2 2 3 3 4 3 4 5 6 6 8 8 9 7 7 7 7 7 7 7 7 7 6 4 3 3 4 4 4
1 1 2 2 2 2 2 3 4 5 5 5 5 5 5 6 2 2 2 3 3 4 5 4 4 7 7 8 6 7 9 8 8 7 8 7 9 8 5 4 4 4 4 4 4
1 2 2 2 2 2 2 2 4 5 5 5 6 5 7 2 2 3 2 2 2 3 4 3 4 6 7 6 8 9 9 11 8 7 7 8 11 7 5 5 5 5 4 4 4
2 2 2 3 3 3 2 4 5 5 5 5 6 6 8 2 3 2 2 4 3 3 3 4 5 7 7 9 10 9 12 10 8 6 8 8 10 7 5 6 6 6 5 4 4
2 2 3 3 4 4 5 6 5 5 5 5 5 7 5 6 3 2 3 4 5 6 7 7 8 9 9 10 13 11 10 9 9 7 8 9 9 8 6 6 6 6 5 5 4
3 3 3 3 5 7 7 7 8 7 6 7 8 7 6 4 4 3 4 5 6 7 10 8 10 11 9 8 8 8 9 9 8 7 8 8 8 8 7 6 7 6 5 5 5
3 4 5 6 6 6 6 7 5 7 10 6 6 6 5 4 7 6 4 7 8 9 8 9 11 8 7 7 8 8 9 10 8 7 7 8 8 7 7 6 6 6 6 5 4
5 5 6 6 6 7 8 6 5 5 10 8 6 6 6 5 7 6 5 7 8 10 9 10 8 7 8 8 9 9 10 10 10 8 7 8 9 8 6 6 5 5 5 5 5
5 5 6 6 8 6 8 5 5 4 13 9 7 6 5 5 8 5 4 5 8 10 8 8 7 7 8 9 8 11 8 8 9 10 13 8 14 9 7 7 6 5 5 5 5
5 5 6 6 6 6 6 4 4 6 20 8 8 5 5 7 7 7 4 6 8 8 8 10 8 9 9 9 8 10 7 8 9 11 11 11 12 10 7 8 7 6 5 5 5
5 5 6 7 7 7 4 4 5 13 19 10 9 9 9 7 7 8 7 5 5 7 7 8 6 7 8 7 7 7 8 9 9 11 16 12 12 12 10 8 7 6 6 5 5
5 5 5 5 7 5 4 6 14 18 8 10 10 9 9 10 9 8 10 9 10 13 12 9 9 7 6 9 8 8 10 15 17 17 17 10 12 11 9 8 7 7 7 6 5
3 5 5 4 5 5 6 11 17 12 11 8 9 9 10 9 9 9 10 11 8 9 11 12 13 9 7 8 10 10 10 15 20 19 15 11 14 12 8 7 7 6 6 5 5
3 4 4 4 2 3 8 15 14 10 9 11 9 11 10 9 9 9 10 10 8 8 11 12 12 8 8 7 7 10 12 9 13 13 16 13 11 9 8 8 8 7 7 6 5
4 5 5 2 2 5 10 13 11 8 8 9 12 10 12 10 10 10 10 9 9 7 7 10 13 9 9 9 8 9 7 13 14 21 20 15 13 14 10 9 8 8 7 7 6
5 9 7 4 4 8 14 12 10 8 8 10 11 11 11 11 10 10 10 9 8 8 8 9 11 11 9 11 12 11 11 10 11 15 19 19 15 9 9 8 8 8 7 7 6
9 13 6 5 12 13 13 10 8 9 8 9 10 10 11 10 11 11 11 9 7 8 10 9 10 13 11 8 7 9 10 10 15 16 14 16 16 7 8 7 7 7 7 6 6
12 13 6 6 14 13 10 10 9 10 9 9 9 8 7 9 11 11 10 7 8 9 9 8 12 15 14 11 8 11 10 10 11 11 15 17 15 7 7 7 7 7 6 6 5
10 12 10 10 12 12 11 11 11 8 8 7 8 7 8 9 8 9 9 7 7 7 8 7 11 13 16 15 13 15 12 11 12 16 16 15 13 10 9 9 7 7 6 6 5
7 11 9 12 11 11 10 11 11 12 9 7 10 9 9 11 10 10 8 7 7 7 7 8 12 10 10 10 11 12 13 12 13 13 16 13 13 10 8 8 7 6 6 6 6
8 8 8 9 9 10 12 11 11 10 10 11 11 10 10 12 11 11 10 9 10 7 8 7 12 10 12 10 10 13 11 10 10 11 11 11 12 7 7 6 7 6 6 7 6
3 5 6 10 11 11 11 11 11 10 9 9 10 10 11 10 8 8 7 7 8 9 10 10 11 12 15 10 11 14 12 10 10 9 9 12 9 7 7 7 6 6 6 6 6